Flag for Poland Weather past 2 weeks in Ruda Śląska, Poland

Now
57 °F

Clear.


Feels Like: 56 °F
Forecast: 48 / 74 °F
Wind: 7 mph from Southwest

Location: Katowice Airport

Current Time: Apr 26, 2015 at 4:21:38 AM

Latest Report: Apr 26, 2015 at 4:00 AM


Visibility: 10 mi

Pressure: 29.83 "Hg

Humidity: 59%

Dew point: 43 °F

Location of Ruda ŚląskaLocation

Historic Weather in Ruda Śląska — Graph

°F

Ruda Śląska temperature yesterday

Maximum temperature yesterday: 72 °F (at 2:30 PM)
Minimum temperature yesterday: 43 °F (at 3:30 AM)
Average temperature yesterday: 60 °F

Past Weeks' High & Low Weather Summary

 TemperatureHumidityPressure
High72 °F (Apr 25, 2:30 PM)100% (Apr 17, 6:00 AM)30.39 "Hg (Apr 17, 6:00 AM)
Low30 °F (Apr 21, 5:00 AM)23% (Apr 12, 4:00 PM)29.83 "Hg (Apr 16, 2:30 AM)
Average50 °F58%30.06 "Hg
* Reported Apr 11 3:00 AM — Apr 26 3:00 AM, Ruda Śląska, Weather by CustomWeather, © 2015

Note: Actual official high and low records may vary slightly from our data, if they occured in-between our weather recording intervals... More about our weather records

Advertising

Ruda Śląska weather history for previous 24 hours

 ConditionsComfort  
Time TempWeatherWind HumidityBarometerVisibility
3:00 AM
Sun, Apr 26
59 °FClear.6 mph55%29.83 "Hg10 mi
2:30 AM59 °FClear.7 mph55%29.83 "Hg10 mi
2:00 AM59 °FPassing clouds.6 mph55%29.83 "HgN/A
1:30 AM61 °FClear.5 mph48%29.83 "Hg10 mi
1:00 AM61 °FPassing clouds.3 mph52%29.83 "HgN/A
12:30 AM61 °FPassing clouds.6 mph48%29.83 "HgN/A
12:00 AM61 °FPassing clouds.6 mph48%29.83 "HgN/A
11:00 PM
Sat, Apr 25
61 °FPassing clouds.5 mph48%29.83 "HgN/A
10:30 PM61 °FPassing clouds.3 mph48%29.83 "HgN/A
10:00 PM61 °FPassing clouds.3 mph45%29.83 "HgN/A
9:30 PM63 °FClear.3 mph42%29.83 "Hg10 mi
9:00 PM64 °FClear.3 mph40%29.83 "Hg10 mi
8:30 PM64 °FPassing clouds.3 mph40%29.83 "HgN/A
8:00 PM66 °FSunny.7 mph37%29.83 "Hg10 mi
7:30 PM68 °FSunny.10 mph33%29.83 "Hg10 mi
7:00 PM68 °FSunny.10 mph33%29.83 "Hg10 mi
6:30 PM70 °FSunny.14 mph31%29.83 "Hg10 mi
6:00 PM72 °FSunny.14 mph27%29.83 "Hg10 mi
5:30 PM72 °FSunny.10 mph29%29.83 "Hg10 mi
5:00 PM72 °FSunny.13 mph27%29.83 "Hg10 mi
4:30 PM72 °FPassing clouds.13 mph27%29.83 "HgN/A
4:00 PM72 °FPassing clouds.13 mph27%29.83 "HgN/A
3:30 PM72 °FPassing clouds.13 mph29%29.86 "HgN/A
3:00 PM70 °FSunny.16 mph29%29.86 "Hg10 mi
2:30 PM72 °FPassing clouds.10 mph29%29.86 "HgN/A
2:00 PM70 °FPassing clouds.10 mph29%29.89 "HgN/A
1:30 PM68 °FPassing clouds.13 mph30%29.89 "HgN/A
1:00 PM68 °FSunny.12 mph30%29.92 "Hg10 mi
12:30 PM66 °FSunny.12 mph37%29.92 "Hg10 mi
12:00 PM66 °FSunny.13 mph35%29.92 "Hg10 mi
11:30 AM66 °FSunny.13 mph35%29.92 "Hg10 mi
11:00 AM64 °FPassing clouds.12 mph37%29.92 "HgN/A
10:30 AM64 °FSunny.12 mph37%29.95 "Hg10 mi
10:00 AM64 °FPassing clouds.10 mph40%29.95 "HgN/A
9:30 AM63 °FPassing clouds.9 mph49%29.95 "HgN/A
9:00 AM61 °FSunny.10 mph55%29.95 "Hg10 mi
8:30 AM59 °FPassing clouds.7 mph55%29.95 "HgN/A
8:00 AM57 °FPassing clouds.5 mph59%29.95 "HgN/A
7:30 AM54 °FSunny.5 mph67%29.95 "Hg10 mi
7:00 AM52 °FPassing clouds.5 mph72%29.95 "HgN/A
6:30 AM48 °FFog.6 mph82%29.95 "Hg5 mi
6:00 AM46 °FFog.5 mph87%29.95 "Hg4 mi
5:30 AM45 °FFog.3 mph87%29.92 "Hg4 mi
5:00 AM45 °FClear.3 mph87%29.95 "Hg4 mi
4:30 AM43 °FClear.2 mph87%29.92 "Hg10 mi
4:00 AM43 °FClear.1 mph87%29.92 "Hg10 mi
Weather by CustomWeather, © 2015

See weather overviewHow to use our weather pages